period_start,C,m1,H,J0,J1,J2,J3,J4,J5,JA,JB,JC,JD,JJ,JK,JN,#
2016-12-27 00:04:50,0.23,0.98,0.00,17.14,21.82,25.68,15.02,47.98,1023.20,2048.02,3180.51,2884.24,3275.83,599.92,611.79,3.02,0000 0000 0000 0000 000000
2016-12-27 00:09:51,0.22,1.00,0.00,17.12,21.80,25.70,15.04,47.94,1023.03,2048.04,3175.86,2881.19,3272.46,600.27,612.23,3.07,0000 0000 0000 0000 000000
2016-12-27 00:14:52,0.24,1.01,0.00,17.12,21.79,25.70,14.99,47.96,1023.00,2048.06,3171.16,2878.09,3268.65,599.89,611.82,3.12,0000 0000 0000 0000 000000
2016-12-27 00:19:53,0.42,1.02,0.00,17.13,21.79,25.66,14.99,47.94,1022.98,2048.04,3163.45,2873.35,3263.18,600.18,612.08,3.17,0000 0000 0000 0000 000000
2016-12-27 00:29:57,0.75,1.10,0.00,16.67,21.79,25.62,15.03,48.09,1022.96,2048.01,3128.25,2855.89,3243.76,600.18,613.04,3.27,0000 0000 0000 0000 000000
2016-12-27 00:34:58,0.76,1.13,0.00,16.82,21.79,25.68,15.01,48.26,1022.80,2048.02,3109.57,2846.92,3233.69,600.27,612.72,3.32,0000 0000 0000 0000 000000
2016-12-27 00:39:59,0.46,1.16,0.00,17.24,21.80,25.77,14.95,48.33,1022.57,2048.01,3097.12,2840.43,3226.30,600.13,611.50,3.37,0000 0000 0000 0000 000000
2016-12-27 00:45:00,0.59,1.19,0.00,17.49,21.80,25.65,14.97,48.37,1022.51,2048.01,3084.44,2833.96,3219.07,599.98,610.85,3.42,0000 0000 0000 0000 000000
2016-12-27 00:50:02,0.27,1.21,0.00,17.63,21.79,25.48,14.91,48.35,1022.48,2048.02,3076.94,2829.42,3213.93,599.93,610.46,3.48,0000 0000 0000 0000 000000
2016-12-27 00:55:03,0.27,1.22,0.00,17.73,21.79,25.34,14.96,48.31,1022.48,2048.03,3072.03,2825.96,3209.88,599.98,610.31,3.53,0000 0000 0000 0000 000000
2016-12-27 01:00:04,0.26,1.24,0.00,17.81,21.78,25.24,14.94,48.33,1022.48,2048.01,3066.85,2822.36,3205.95,600.19,610.31,3.58,0000 0000 0000 0000 000000
2016-12-27 01:05:05,0.25,1.25,0.00,17.87,21.77,25.22,14.83,48.06,1022.47,2048.02,3061.87,2818.89,3202.02,599.87,609.93,3.63,0000 0000 0000 0000 000000
2016-12-27 01:10:06,0.25,1.26,0.00,17.91,21.77,25.31,14.88,48.11,1022.48,2048.02,3057.06,2815.56,3198.19,600.09,610.03,3.68,0000 0000 0000 0000 000000
2016-12-27 01:15:07,0.25,1.28,0.00,17.94,21.77,25.36,14.93,48.11,1022.48,2048.03,3052.14,2812.17,3194.35,600.29,610.19,3.73,0000 0000 0000 0000 000000
2016-12-27 01:20:09,0.26,1.29,0.00,17.98,21.77,25.45,14.89,48.01,1022.48,2048.01,3047.18,2808.79,3190.42,600.23,610.04,3.78,0000 0000 0000 0000 000000
2016-12-27 01:25:10,0.26,1.30,0.00,18.00,21.79,25.52,14.81,48.00,1022.48,2048.00,3042.10,2805.21,3186.45,599.96,609.69,3.83,0000 0000 0000 0000 000000
2016-12-27 01:30:11,0.27,1.32,0.00,18.05,21.79,25.58,14.83,48.17,1022.48,2048.00,3036.94,2801.68,3182.51,599.73,609.38,3.88,0000 0000 0000 0000 000000
2016-12-27 01:35:12,0.26,1.33,0.00,18.08,21.79,25.58,14.89,48.15,1022.48,2048.00,3032.07,2798.22,3178.54,599.90,609.47,3.93,0000 0000 0000 0000 000000
2016-12-27 01:40:14,0.27,1.34,0.00,18.09,21.82,25.62,14.85,48.12,1022.46,2047.99,3027.15,2794.68,3174.51,599.96,609.39,3.98,0000 0000 0000 0000 000000
2016-12-27 01:45:15,0.25,1.36,0.00,18.11,21.82,25.66,14.93,48.14,1022.40,2047.98,3022.14,2791.27,3170.64,600.08,609.56,4.03,0000 0000 0000 0000 000000
2016-12-27 01:50:17,0.25,1.37,0.00,18.14,21.84,25.69,14.93,48.09,1022.17,2047.96,3017.30,2787.88,3166.79,600.10,609.39,4.08,0000 0000 0000 0000 000000
2016-12-27 01:55:18,0.24,1.38,0.00,18.15,21.86,25.68,14.82,48.08,1022.10,2047.77,3012.39,2784.50,3162.97,599.87,609.22,4.13,0000 0000 0000 0000 000000
2016-12-27 02:00:19,0.21,1.39,0.00,18.16,21.87,25.66,14.85,48.12,1022.04,2047.43,3007.69,2781.14,3159.26,599.66,608.81,4.18,0000 0000 0000 0000 000000
2016-12-27 02:05:20,0.25,1.40,0.00,18.17,21.89,25.72,14.82,48.08,1022.05,2047.13,3003.05,2777.69,3155.20,599.83,609.02,4.23,0000 0000 0000 0000 000000
2016-12-27 02:10:21,0.28,1.42,0.00,18.19,21.91,25.79,14.91,48.23,1022.04,2047.05,2997.71,2773.99,3151.15,600.15,609.27,4.28,0000 0000 0000 0000 000000
2016-12-27 02:15:23,0.30,1.43,0.00,18.19,21.93,25.82,14.86,48.10,1022.04,2047.02,2992.09,2769.92,3146.62,599.97,609.08,4.33,0000 0000 0000 0000 000000
2016-12-27 02:20:24,0.28,1.45,0.00,18.17,21.94,25.84,14.79,48.12,1022.02,2047.00,2986.75,2766.14,3142.36,600.04,609.07,4.38,0000 0000 0000 0000 000000
2016-12-27 02:25:25,0.27,1.46,0.00,18.20,21.97,25.81,14.86,48.15,1022.00,2047.00,2981.70,2762.61,3138.42,600.10,609.10,4.43,0000 0000 0000 0000 000000
2016-12-27 02:30:26,0.27,1.48,0.00,18.19,21.98,25.85,14.88,48.12,1021.99,2047.00,2976.80,2759.06,3134.54,599.94,609.06,4.48,0000 0000 0000 0000 000000
2016-12-27 02:35:27,0.29,1.49,0.00,18.20,21.99,25.89,14.84,48.23,1021.99,2047.00,2971.51,2755.24,3130.29,600.12,609.18,4.53,0000 0000 0000 0000 000000
2016-12-27 02:40:28,0.31,1.51,0.00,18.20,22.02,25.85,14.92,48.15,1021.96,2047.00,2966.12,2751.40,3125.80,600.27,609.27,4.58,0000 0000 0000 0000 000000
2016-12-27 02:45:30,0.31,1.52,0.00,18.21,22.03,25.88,14.90,48.17,1021.98,2047.00,2960.44,2747.39,3121.16,600.09,609.05,4.63,0000 0000 0000 0000 000000
2016-12-27 02:50:31,0.28,1.54,0.00,18.21,22.04,25.91,14.86,48.24,1021.93,2047.00,2955.04,2743.58,3116.95,599.88,608.88,4.68,0000 0000 0000 0000 000000
2016-12-27 02:55:32,0.27,1.55,0.00,18.20,22.06,25.91,14.83,48.14,1021.74,2047.00,2950.16,2740.04,3112.93,599.73,608.64,4.73,0000 0000 0000 0000 000000
2016-12-27 03:00:34,0.27,1.56,0.00,18.20,22.07,25.92,14.86,48.21,1021.53,2047.00,2945.24,2736.57,3109.03,599.98,608.76,4.78,0000 0000 0000 0000 000000
2016-12-27 03:05:35,0.27,1.58,0.00,18.20,22.08,25.99,14.84,48.21,1021.51,2047.00,2940.45,2733.09,3105.18,600.05,608.94,4.83,0000 0000 0000 0000 000000
2016-12-27 03:10:36,0.27,1.59,0.00,18.19,22.09,25.94,14.90,48.25,1021.51,2046.98,2935.60,2729.68,3101.35,600.07,608.96,4.88,0000 0000 0000 0000 000000
2016-12-27 03:15:38,0.28,1.61,0.00,18.19,22.10,25.94,14.82,48.13,1021.50,2046.98,2930.59,2726.14,3097.58,600.47,609.31,4.93,0000 0000 0000 0000 000000
2016-12-27 03:20:39,0.28,1.62,0.00,18.19,22.12,25.98,14.98,48.33,1021.50,2046.98,2925.55,2722.56,3093.68,600.19,608.98,4.98,0000 0000 0000 0000 000000
2016-12-27 03:25:40,0.28,1.63,0.00,18.19,22.12,25.95,14.88,48.23,1021.50,2046.97,2920.60,2718.98,3089.64,600.14,608.99,5.03,0000 0000 0000 0000 000000
2016-12-27 03:30:41,0.32,1.65,0.00,18.16,22.13,25.97,14.91,48.26,1021.50,2046.96,2915.12,2715.02,3085.10,600.12,608.98,5.08,0000 0000 0000 0000 000000
2016-12-27 03:35:42,0.36,1.67,0.00,18.17,22.14,25.96,14.86,48.19,1021.49,2046.94,2908.98,2710.50,3080.14,600.15,609.00,5.13,0000 0000 0000 0000 000000
2016-12-27 03:40:44,0.38,1.69,0.00,18.17,22.15,25.97,14.86,48.23,1021.41,2046.87,2902.34,2705.62,3074.73,600.04,608.83,5.18,0000 0000 0000 0000 000000
2016-12-27 03:45:45,0.37,1.71,0.00,18.17,22.16,25.98,14.90,48.36,1021.31,2046.62,2895.54,2700.45,3069.11,599.97,608.62,5.23,0000 0000 0000 0000 000000
2016-12-27 03:50:46,0.35,1.72,0.00,18.19,22.17,26.01,14.88,48.29,1021.40,2046.44,2889.17,2695.56,3063.50,599.94,608.70,5.28,0000 0000 0000 0000 000000
2016-12-27 03:55:47,0.25,1.74,0.00,18.18,22.17,25.99,14.96,48.27,1021.27,2046.22,2884.19,2691.87,3059.17,600.25,608.87,5.33,0000 0000 0000 0000 000000
2016-12-27 04:00:49,0.26,1.75,0.00,18.17,22.18,25.99,14.89,48.30,1021.04,2046.07,2879.53,2688.47,3055.39,600.10,608.71,5.38,0000 0000 0000 0000 000000
2016-12-27 04:05:50,0.25,1.77,0.00,18.17,22.19,26.00,14.92,48.27,1021.02,2046.02,2875.00,2685.23,3051.73,599.98,608.56,5.43,0000 0000 0000 0000 000000
2016-12-27 04:10:51,0.25,1.78,0.00,18.15,22.19,26.00,14.84,48.15,1021.02,2046.02,2870.62,2682.09,3048.15,599.80,608.37,5.48,0000 0000 0000 0000 000000
2016-12-27 04:15:53,0.29,1.79,0.00,18.15,22.20,25.98,14.84,48.13,1021.02,2046.01,2865.84,2678.52,3044.00,599.96,608.58,5.53,0000 0000 0000 0000 000000
2016-12-27 04:20:54,0.28,1.81,0.00,18.16,22.21,26.01,14.79,48.18,1021.01,2046.01,2860.94,2674.93,3040.01,599.58,608.11,5.58,0000 0000 0000 0000 000000
2016-12-27 04:25:55,0.28,1.82,0.00,18.14,22.22,25.98,14.91,48.24,1021.01,2046.00,2856.11,2671.46,3036.04,600.05,608.58,5.63,0000 0000 0000 0000 000000
2016-12-27 04:30:57,0.26,1.84,0.00,18.12,22.22,25.96,14.83,48.38,1020.99,2046.00,2851.46,2668.14,3032.33,599.79,608.38,5.68,0000 0000 0000 0000 000000
2016-12-27 04:35:58,0.29,1.85,0.00,18.13,22.22,25.96,14.88,48.33,1020.76,2046.00,2846.73,2664.63,3028.35,600.40,608.80,5.73,0000 0000 0000 0000 000000
2016-12-27 04:40:59,0.32,1.87,0.00,18.11,22.22,25.93,14.82,48.36,1020.54,2046.00,2841.57,2660.75,3023.96,599.92,608.47,5.78,0000 0000 0000 0000 000000
2016-12-27 04:46:00,0.35,1.88,0.00,18.10,22.22,25.97,14.93,48.34,1020.52,2046.00,2835.84,2656.45,3019.11,599.97,608.39,5.83,0000 0000 0000 0000 000000
2016-12-27 04:51:02,0.32,1.90,0.00,18.11,22.22,25.93,14.85,48.36,1020.52,2045.99,2830.32,2652.36,3014.63,599.84,608.21,5.89,0000 0000 0000 0000 000000
2016-12-27 04:56:03,0.32,1.92,0.00,18.12,22.22,25.95,14.81,48.28,1020.52,2045.99,2824.96,2648.30,3010.13,599.51,607.85,5.94,0000 0000 0000 0000 000000
2016-12-27 05:01:04,0.32,1.93,0.00,18.10,22.22,25.88,14.85,48.29,1020.52,2045.98,2819.64,2644.37,3005.86,599.78,608.23,5.99,0000 0000 0000 0000 000000
2016-12-27 05:06:06,0.32,1.95,0.00,18.11,22.22,25.90,14.84,48.30,1020.52,2045.98,2814.42,2640.44,3001.47,600.07,608.45,6.04,0000 0000 0000 0000 000000
2016-12-27 05:11:07,0.31,1.96,0.00,18.09,22.22,25.92,14.86,48.27,1020.52,2045.97,2809.22,2636.55,2997.13,600.00,608.46,6.09,0000 0000 0000 0000 000000
2016-12-27 05:16:08,0.28,1.98,0.00,18.10,22.22,25.72,14.92,48.32,1020.52,2045.98,2804.45,2633.02,2993.24,600.39,608.70,6.14,0000 0000 0000 0000 000000
2016-12-27 05:21:09,0.29,1.99,0.00,18.08,22.22,25.84,14.87,48.30,1020.52,2045.98,2799.83,2629.54,2989.11,600.03,608.45,6.19,0000 0000 0000 0000 000000
2016-12-27 05:26:10,0.31,2.01,0.00,18.08,22.22,25.86,14.84,48.42,1020.52,2045.97,2794.76,2625.78,2984.84,600.30,608.74,6.24,0000 0000 0000 0000 000000
2016-12-27 05:31:12,0.28,2.02,0.00,18.08,22.22,25.86,14.87,48.21,1020.51,2045.98,2790.00,2622.39,2980.96,600.09,608.52,6.29,0000 0000 0000 0000 000000
2016-12-27 05:36:13,0.28,2.04,0.00,18.06,22.22,25.84,14.85,48.38,1020.52,2045.98,2785.34,2619.02,2977.04,599.81,608.35,6.34,0000 0000 0000 0000 000000
2016-12-27 05:41:14,0.29,2.05,0.00,18.07,22.21,25.85,14.77,48.31,1020.52,2045.98,2780.62,2615.57,2973.09,599.54,608.00,6.39,0000 0000 0000 0000 000000
2016-12-27 05:46:15,0.28,2.07,0.00,18.07,22.20,25.86,14.88,48.27,1020.44,2045.97,2775.79,2612.10,2969.28,600.33,608.75,6.44,0000 0000 0000 0000 000000
2016-12-27 05:51:17,0.30,2.08,0.00,18.06,22.19,25.84,14.90,48.18,1020.21,2045.96,2771.05,2608.59,2965.31,600.16,608.40,6.49,0000 0000 0000 0000 000000
2016-12-27 05:56:18,0.29,2.10,0.00,18.06,22.19,25.83,14.83,48.26,1020.14,2045.97,2766.26,2605.10,2961.43,600.07,608.36,6.54,0000 0000 0000 0000 000000
2016-12-27 06:01:19,0.29,2.11,0.00,18.04,22.19,25.81,14.82,48.11,1020.12,2045.98,2761.62,2601.67,2957.56,599.88,607.98,6.59,0000 0000 0000 0000 000000
2016-12-27 06:06:20,0.28,2.13,0.00,18.03,22.19,25.77,14.87,48.28,1020.35,2045.97,2757.09,2598.29,2953.68,600.13,608.65,6.64,0000 0000 0000 0000 000000
2016-12-27 06:11:22,0.26,2.14,0.00,18.04,22.18,25.84,14.86,48.18,1020.10,2045.98,2752.68,2595.11,2950.14,600.12,608.40,6.69,0000 0000 0000 0000 000000
2016-12-27 06:16:23,0.26,2.15,0.00,18.02,22.17,25.80,14.84,48.33,1020.04,2045.98,2748.55,2591.95,2946.65,599.76,608.12,6.74,0000 0000 0000 0000 000000
2016-12-27 06:21:24,0.29,2.17,0.00,18.01,22.17,25.78,14.89,48.38,1020.04,2045.98,2744.05,2588.64,2942.96,600.07,608.32,6.79,0000 0000 0000 0000 000000
2016-12-27 06:26:25,0.31,2.18,0.00,18.00,22.17,25.79,14.93,48.30,1020.04,2045.98,2739.17,2585.12,2939.01,600.30,608.57,6.84,0000 0000 0000 0000 000000
2016-12-27 06:31:26,0.30,2.20,0.00,18.00,22.17,25.78,14.91,48.45,1020.04,2045.98,2734.41,2581.61,2935.03,600.07,608.38,6.89,0000 0000 0000 0000 000000
2016-12-27 06:36:27,0.29,2.21,0.00,18.00,22.17,25.75,14.88,48.32,1020.04,2045.98,2729.72,2578.19,2931.21,600.09,608.35,6.94,0000 0000 0000 0000 000000
2016-12-27 06:41:29,0.28,2.23,0.00,17.99,22.17,25.77,14.82,48.33,1020.04,2045.99,2725.20,2574.85,2927.46,599.75,608.11,6.99,0000 0000 0000 0000 000000
2016-12-27 06:46:30,0.29,2.24,0.00,17.98,22.15,25.79,14.90,48.47,1020.04,2045.99,2720.75,2571.56,2923.63,599.89,608.24,7.04,0000 0000 0000 0000 000000
2016-12-27 06:51:31,0.28,2.26,0.00,17.96,22.14,25.77,14.87,48.48,1020.04,2045.99,2716.16,2568.35,2920.06,600.19,608.59,7.09,0000 0000 0000 0000 000000
2016-12-27 06:56:32,0.27,2.27,0.00,17.97,22.14,25.81,14.82,48.66,1020.04,2045.98,2711.67,2565.14,2916.61,599.42,607.77,7.14,0000 0000 0000 0000 000000
2016-12-27 07:01:34,0.27,2.28,0.00,17.96,22.14,25.75,14.92,48.58,1020.00,2045.99,2707.65,2562.06,2913.08,600.09,608.42,7.19,0000 0000 0000 0000 000000
2016-12-27 07:06:35,0.27,2.30,0.00,17.95,22.14,25.74,14.86,48.40,1020.01,2045.99,2703.34,2559.00,2909.33,599.53,607.99,7.24,0000 0000 0000 0000 000000
2016-12-27 07:11:36,0.27,2.31,0.00,17.95,22.14,25.67,14.90,48.52,1019.90,2045.99,2698.96,2555.97,2905.82,600.42,608.77,7.29,0000 0000 0000 0000 000000
2016-12-27 07:16:37,0.28,2.32,0.00,17.94,22.13,25.77,14.89,48.58,1019.76,2045.98,2694.64,2552.80,2902.22,599.71,608.07,7.34,0000 0000 0000 0000 000000
2016-12-27 07:21:39,0.28,2.34,0.00,17.91,22.12,25.62,14.88,48.67,1019.64,2045.99,2690.20,2549.59,2898.56,599.60,607.96,7.39,0000 0000 0000 0000 000000
2016-12-27 07:26:40,0.26,2.35,0.00,17.91,22.12,25.74,14.83,48.52,1019.68,2045.99,2686.20,2546.57,2895.04,599.98,608.48,7.44,0000 0000 0000 0000 000000
2016-12-27 07:31:41,0.25,2.37,0.00,17.92,22.12,25.74,14.86,48.40,1019.88,2045.99,2682.29,2543.71,2891.75,600.04,608.47,7.49,0000 0000 0000 0000 000000
2016-12-27 07:36:42,0.25,2.38,0.00,17.93,22.12,25.73,14.86,48.50,1019.60,2045.99,2678.36,2540.86,2888.60,599.78,607.98,7.54,0000 0000 0000 0000 000000
2016-12-27 07:41:44,0.25,2.39,0.00,17.92,22.10,25.64,14.89,48.57,1019.77,2045.99,2674.46,2538.07,2885.49,599.83,608.09,7.59,0000 0000 0000 0000 000000
2016-12-27 07:46:45,0.24,2.40,0.00,17.92,22.09,25.67,14.88,48.58,1019.98,2045.99,2670.76,2535.29,2882.26,600.02,608.47,7.64,0000 0000 0000 0000 000000
2016-12-27 07:51:47,0.23,2.42,0.00,17.89,22.09,25.57,14.93,48.57,1019.90,2045.99,2667.06,2532.70,2879.40,600.04,608.49,7.69,0000 0000 0000 0000 000000
2016-12-27 07:56:48,0.21,2.43,0.00,17.89,22.09,25.57,14.93,48.61,1019.59,2045.99,2663.60,2530.24,2876.73,599.87,608.24,7.74,0000 0000 0000 0000 000000
2016-12-27 08:01:49,0.23,2.44,0.00,17.87,22.08,25.60,14.83,48.49,1019.56,2045.99,2660.18,2527.62,2873.72,599.60,607.91,7.79,0000 0000 0000 0000 000000
2016-12-27 08:06:50,0.22,2.45,0.00,17.88,22.07,25.57,14.86,48.43,1019.55,2045.99,2656.69,2525.05,2870.85,599.72,608.02,7.84,0000 0000 0000 0000 000000
2016-12-27 08:11:52,0.22,2.46,0.00,17.86,22.07,25.59,14.90,48.60,1019.55,2045.99,2653.21,2522.52,2867.97,600.04,608.30,7.89,0000 0000 0000 0000 000000
2016-12-27 08:16:53,0.21,2.47,0.00,17.84,22.07,25.53,14.94,48.49,1019.51,2045.99,2650.03,2520.15,2865.13,600.24,608.61,7.94,0000 0000 0000 0000 000000
2016-12-27 08:21:55,0.22,2.48,0.00,17.86,22.07,25.64,14.89,48.58,1019.43,2045.99,2646.88,2517.71,2862.23,599.90,608.05,7.99,0000 0000 0000 0000 000000
2016-12-27 08:26:56,0.22,2.50,0.00,17.85,22.06,25.56,14.88,48.66,1019.43,2045.99,2643.46,2515.32,2859.54,599.96,608.21,8.04,0000 0000 0000 0000 000000
2016-12-27 08:31:57,0.21,2.51,0.00,17.87,22.05,25.62,14.90,48.37,1019.16,2045.99,2640.27,2513.02,2856.95,600.58,608.70,8.09,0000 0000 0000 0000 000000
2016-12-27 08:36:59,0.20,2.52,0.00,17.86,22.04,25.66,14.89,48.48,1019.33,2045.99,2637.11,2510.68,2854.32,600.17,608.41,8.14,0000 0000 0000 0000 000000
2016-12-27 08:42:00,0.20,2.53,0.00,17.84,22.04,25.61,14.87,48.58,1019.51,2045.99,2633.98,2508.39,2851.68,600.12,608.24,8.19,0000 0000 0000 0000 000000
2016-12-27 08:47:01,0.21,2.54,0.00,17.84,22.04,25.62,14.89,48.73,1019.51,2046.00,2630.82,2506.14,2849.14,599.94,608.28,8.25,0000 0000 0000 0000 000000
2016-12-27 08:52:03,0.20,2.55,0.00,17.84,22.03,25.55,14.83,48.53,1019.55,2046.00,2627.80,2503.85,2846.48,599.79,608.16,8.30,0000 0000 0000 0000 000000
2016-12-27 08:57:04,0.20,2.56,0.00,17.82,22.02,25.42,14.89,48.58,1019.55,2046.01,2624.78,2501.61,2843.94,600.22,608.82,8.35,0000 0000 0000 0000 000000
2016-12-27 09:02:06,0.19,2.57,0.00,17.82,22.02,25.56,14.85,48.89,1019.52,2046.01,2621.90,2499.43,2841.41,599.67,608.04,8.40,0000 0000 0000 0000 000000
2016-12-27 09:07:07,0.21,2.58,0.00,17.82,22.02,25.58,14.86,48.62,1019.48,2046.01,2618.85,2497.18,2838.82,599.91,608.26,8.45,0000 0000 0000 0000 000000
2016-12-27 09:12:09,0.19,2.59,0.00,17.82,22.02,25.65,14.86,48.74,1019.54,2046.01,2615.85,2495.05,2836.25,599.80,608.14,8.50,0000 0000 0000 0000 000000
2016-12-27 09:17:10,0.19,2.60,0.00,17.81,22.02,25.58,14.92,48.46,1019.55,2046.02,2613.03,2492.93,2833.59,600.31,608.58,8.55,0000 0000 0000 0000 000000
2016-12-27 09:22:11,0.20,2.61,0.00,17.81,22.02,25.58,14.89,48.48,1019.55,2046.01,2610.07,2490.77,2831.08,600.15,608.70,8.60,0000 0000 0000 0000 000000
2016-12-27 09:27:12,0.19,2.62,0.00,17.81,22.01,25.59,14.98,48.73,1019.55,2046.01,2607.26,2488.57,2828.43,600.21,608.51,8.65,0000 0000 0000 0000 000000
2016-12-27 09:32:14,0.20,2.63,0.00,17.79,22.00,25.63,14.90,48.59,1019.50,2046.01,2604.26,2486.35,2825.86,599.95,608.37,8.70,0000 0000 0000 0000 000000
2016-12-27 09:37:15,0.21,2.64,0.00,17.79,21.99,25.62,14.88,48.60,1019.23,2046.01,2601.13,2484.10,2823.36,600.18,608.45,8.75,0000 0000 0000 0000 000000
2016-12-27 09:42:17,0.20,2.65,0.00,17.77,21.99,25.59,14.84,48.63,1019.06,2046.01,2598.16,2481.87,2820.82,600.09,608.25,8.80,0000 0000 0000 0000 000000
2016-12-27 09:47:18,0.19,2.66,0.00,17.79,21.99,25.58,14.94,48.67,1019.07,2046.03,2595.25,2479.80,2818.36,600.11,608.21,8.85,0000 0000 0000 0000 000000
2016-12-27 09:52:19,0.20,2.67,0.00,17.77,21.97,25.63,14.99,48.71,1019.06,2046.01,2592.16,2477.48,2815.87,600.11,608.24,8.90,0000 0000 0000 0000 000000
2016-12-27 09:57:21,0.20,2.68,0.00,17.77,21.97,25.60,14.82,48.62,1019.06,2046.03,2589.04,2475.32,2813.51,599.83,608.04,8.95,0000 0000 0000 0000 000000
2016-12-27 10:02:22,0.20,2.69,0.00,17.77,21.97,25.54,14.90,48.62,1019.07,2046.03,2586.13,2473.16,2811.12,600.06,608.12,9.00,0000 0000 0000 0000 000000
2016-12-27 10:07:23,0.20,2.70,0.00,17.77,21.95,25.58,14.87,48.69,1019.07,2046.05,2583.38,2471.05,2808.48,599.91,608.13,9.05,0000 0000 0000 0000 000000
2016-12-27 10:12:25,0.35,2.71,0.00,17.77,21.95,25.55,14.95,48.62,1019.08,2046.08,2578.53,2467.97,2805.04,600.19,608.23,9.10,0000 0000 0000 0000 000000
2016-12-27 10:17:26,0.20,2.73,0.00,17.75,21.94,25.51,14.87,48.58,1019.07,2046.12,2574.44,2465.39,2802.08,599.81,608.06,9.15,0000 0000 0000 0000 000000
2016-12-27 10:22:27,0.20,2.74,0.00,17.74,21.94,25.58,14.89,48.65,1019.06,2046.09,2571.59,2463.21,2799.54,600.10,608.31,9.20,0000 0000 0000 0000 000000
2016-12-27 10:27:28,0.21,2.75,0.00,17.74,21.93,25.45,14.88,48.67,1019.06,2046.12,2568.63,2461.10,2797.16,599.85,608.15,9.25,0000 0000 0000 0000 000000
2016-12-27 10:32:30,0.21,2.76,0.00,17.75,21.92,25.52,14.86,48.67,1019.04,2046.23,2565.75,2458.98,2794.71,599.76,608.03,9.30,0000 0000 0000 0000 000000
2016-12-27 10:37:31,0.20,2.77,0.00,17.73,21.92,25.55,14.86,48.64,1019.05,2046.27,2562.93,2456.84,2792.23,599.84,608.12,9.35,0000 0000 0000 0000 000000
2016-12-27 10:42:32,0.19,2.78,0.00,17.74,21.92,25.47,14.84,48.65,1019.05,2046.16,2560.13,2454.70,2789.75,599.92,608.21,9.40,0000 0000 0000 0000 000000
2016-12-27 10:47:33,0.20,2.79,0.00,17.73,21.91,25.49,14.91,48.65,1019.05,2046.35,2557.43,2452.65,2787.47,599.90,608.18,9.45,0000 0000 0000 0000 000000
2016-12-27 10:52:35,0.22,2.80,0.00,17.72,21.89,25.51,14.85,48.63,1019.04,2046.52,2554.61,2450.54,2785.03,600.03,608.32,9.50,0000 0000 0000 0000 000000
2016-12-27 10:57:36,0.22,2.81,0.00,17.71,21.89,25.49,14.92,48.64,1019.02,2046.65,2551.65,2448.40,2782.66,600.51,608.81,9.55,0000 0000 0000 0000 000000
2016-12-27 11:02:38,0.21,2.82,0.00,17.69,21.89,25.49,14.84,48.66,1019.01,2046.81,2548.76,2446.29,2780.26,600.12,608.54,9.60,0000 0000 0000 0000 000000
2016-12-27 11:07:39,0.21,2.83,0.00,17.72,21.89,25.52,14.86,48.76,1018.95,2046.90,2545.83,2444.20,2777.84,600.08,608.21,9.65,0000 0000 0000 0000 000000
2016-12-27 11:12:40,0.20,2.84,0.00,17.69,21.87,25.48,14.83,48.66,1018.86,2046.91,2543.22,2442.04,2775.25,600.00,608.17,9.70,0000 0000 0000 0000 000000
2016-12-27 11:17:41,0.18,2.85,0.00,17.69,21.87,25.49,14.87,48.65,1019.04,2046.79,2540.42,2439.88,2772.60,599.90,608.26,9.75,0000 0000 0000 0000 000000
2016-12-27 11:22:42,0.19,2.86,0.00,17.69,21.87,25.50,14.85,48.71,1019.05,2046.68,2537.53,2437.84,2770.23,600.22,608.67,9.80,0000 0000 0000 0000 000000
2016-12-27 11:27:43,0.21,2.87,0.00,17.69,21.87,25.43,14.90,48.67,1019.03,2046.82,2534.75,2435.77,2768.02,600.41,608.78,9.85,0000 0000 0000 0000 000000
2016-12-27 11:32:45,0.19,2.89,0.00,17.68,21.87,25.49,14.80,48.82,1019.06,2046.93,2532.02,2433.75,2765.72,599.58,608.02,9.90,0000 0000 0000 0000 000000
2016-12-27 11:37:46,0.19,2.90,0.00,17.70,21.85,25.49,14.90,48.78,1019.06,2046.96,2529.25,2431.77,2763.42,600.12,608.50,9.95,0000 0000 0000 0000 000000
2016-12-27 11:42:48,0.19,2.90,0.00,17.70,21.85,25.49,14.88,48.70,1019.06,2046.93,2526.44,2429.73,2761.07,600.21,608.62,10.00,0000 0000 0000 0000 000000
2016-12-27 11:47:49,0.20,2.92,0.00,17.68,21.84,25.47,14.85,48.73,1019.06,2046.96,2523.77,2427.65,2758.54,599.98,608.35,10.05,0000 0000 0000 0000 000000
2016-12-27 11:52:50,0.19,2.93,0.00,17.68,21.84,25.43,14.87,48.64,1019.03,2046.96,2521.07,2425.62,2756.14,600.06,608.40,10.10,0000 0000 0000 0000 000000
2016-12-27 11:57:51,0.20,2.93,0.00,17.65,21.84,25.44,14.92,48.62,1018.89,2046.94,2518.27,2423.54,2753.73,600.51,608.77,10.15,0000 0000 0000 0000 000000
2016-12-27 12:02:53,0.20,2.95,0.00,17.66,21.84,25.49,14.95,48.73,1018.80,2046.94,2515.45,2421.47,2751.47,599.98,608.25,10.20,0000 0000 0000 0000 000000
2016-12-27 12:07:54,0.20,2.95,0.00,17.66,21.84,25.49,14.90,48.76,1018.83,2046.96,2512.64,2419.41,2749.24,600.07,608.37,10.25,0000 0000 0000 0000 000000
2016-12-27 12:12:55,0.19,2.97,0.00,17.65,21.82,25.45,14.85,48.82,1018.70,2046.97,2509.92,2417.38,2746.95,599.82,608.04,10.30,0000 0000 0000 0000 000000
2016-12-27 12:17:57,0.20,2.98,0.00,17.67,21.82,25.23,14.84,48.81,1018.67,2046.96,2507.08,2415.32,2744.58,599.99,608.23,10.35,0000 0000 0000 0000 000000
2016-12-27 12:22:58,0.19,2.99,0.00,17.67,21.82,25.39,14.81,48.73,1018.69,2046.96,2504.33,2413.30,2742.33,599.67,607.80,10.40,0000 0000 0000 0000 000000
2016-12-27 12:27:59,0.20,3.00,0.00,17.65,21.82,25.29,14.90,48.83,1018.63,2046.95,2501.52,2411.24,2740.04,600.08,608.22,10.45,0000 0000 0000 0000 000000
2016-12-27 12:33:01,0.19,3.01,0.00,17.65,21.82,25.35,14.89,48.99,1018.58,2046.97,2498.81,2409.21,2737.63,600.00,608.23,10.50,0000 0000 0000 0000 000000
2016-12-27 12:38:02,0.20,3.02,0.00,17.65,21.81,25.37,14.85,49.02,1018.57,2046.98,2496.05,2407.12,2735.32,600.11,608.33,10.56,0000 0000 0000 0000 000000
2016-12-27 12:43:03,0.21,3.03,0.00,17.65,21.81,25.44,14.92,48.94,1018.57,2046.98,2493.35,2404.97,2732.87,600.38,608.50,10.61,0000 0000 0000 0000 000000
2016-12-27 12:48:05,0.20,3.04,0.00,17.65,21.82,25.43,14.94,48.77,1018.57,2046.98,2490.62,2402.85,2730.33,600.43,608.63,10.66,0000 0000 0000 0000 000000
2016-12-27 12:53:06,0.20,3.05,0.00,17.63,21.82,25.44,14.85,48.83,1018.57,2046.98,2487.85,2400.74,2727.89,599.84,608.06,10.71,0000 0000 0000 0000 000000
2016-12-27 12:58:07,0.20,3.06,0.00,17.64,21.82,25.45,14.92,48.98,1018.57,2046.98,2485.08,2398.62,2725.49,599.91,608.15,10.76,0000 0000 0000 0000 000000
2016-12-27 13:03:09,0.20,3.07,0.00,17.62,21.82,25.45,14.88,48.73,1018.53,2046.98,2482.29,2396.51,2723.11,600.21,608.30,10.81,0000 0000 0000 0000 000000
2016-12-27 13:08:10,0.20,3.08,0.00,17.61,21.82,25.45,14.84,48.77,1018.26,2046.99,2479.75,2394.46,2720.46,599.97,608.05,10.86,0000 0000 0000 0000 000000